CW4887 Weather Reports


time (UTC)temp
F
wind
direction
speed
knots
gust
knots
rain 1hr
in
rain 24hr
in
rain mn
in
humidity
%
barometer
mb
20260505194550 71 89 4.3 7.0 0.00 0.00 0.00 58 1009.8
20260505193049 71 55 1.7 8.7 0.00 0.00 0.00 59 1009.8
20260505191554 70 98 3.5 8.7 0.00 0.00 0.00 60 1009.9
20260505190046 69 76 6.1 9.6 0.00 0.00 0.00 61 1010.0
20260505184543 68 91 0.0 5.2 0.00 0.00 0.00 62 1010.0
20260505183044 68 92 3.5 7.8 0.00 0.00 0.00 62 1010.1
20260505181546 69 86 3.5 6.1 0.00 0.00 0.00 61 1010.1
20260505180041 69 78 0.0 0.0 0.00 0.00 0.00 61 1010.1
20260505174543 69 197 0.0 0.0 0.00 0.00 0.00 58 1010.2
20260505173037 68 199 0.0 0.0 0.00 0.00 0.00 58 1010.3
20260505171534 66 207 0.0 0.0 0.00 0.00 0.00 60 1010.4
20260505170035 65 207 0.0 0.0 0.00 0.00 0.00 64 1010.3
20260505164530 64 207 0.0 0.0 0.00 0.00 0.00 63 1010.4
20260505163033 63 204 0.0 0.0 0.00 0.00 0.00 65 1010.3
20260505161524 62 204 0.0 0.0 0.00 0.00 0.00 66 1010.3
20260505153016 60 207 0.0 0.0 0.00 0.00 0.00 69 1010.5
20260505151518 59 207 0.0 0.0 0.00 0.00 0.00 70 1010.4
20260505124604 52 209 0.0 0.0 0.00 0.00 0.00 56 1009.5
20260505123059 52 209 0.0 0.0 0.00 0.00 0.00 60 1009.3
20260505121620 53 209 0.0 0.0 0.00 0.00 0.00 68 1009.3
20260505120055 53 209 0.0 0.0 0.00 0.00 0.00 68 1009.2
20260505114551 53 209 0.0 0.0 0.00 0.00 0.00 70 1009.2
20260505113049 54 209 0.0 0.0 0.00 0.00 0.00 71 1009.2
20260505111547 55 209 0.0 0.0 0.00 0.00 0.00 71 1009.1
20260505101551 57 238 0.0 0.0 0.00 0.00 0.00 70 1008.8
20260505100037 58 238 0.0 5.2 0.00 0.00 0.00 69 1008.6
20260505094538 57 215 0.0 0.0 0.00 0.00 0.00 70 1008.5
20260505093041 57 215 0.0 0.0 0.00 0.00 0.00 69 1008.4
20260505091539 58 215 0.0 0.0 0.00 0.00 0.00 69 1008.4
20260505090048 56 214 0.0 0.0 0.00 0.00 0.00 71 1008.4
20260505084531 56 214 0.0 0.0 0.00 0.00 0.00 71 1008.2
20260505083032 56 214 0.0 0.0 0.00 0.00 0.00 71 1008.2
20260505081530 57 214 0.0 0.0 0.00 0.00 0.00 71 1008.1
20260505080024 57 214 0.0 0.0 0.00 0.00 0.00 71 1008.2
20260505074522 58 213 0.0 0.0 0.00 0.00 0.00 71 1008.0
20260505073020 58 213 0.0 0.0 0.00 0.00 0.00 71 1007.8
20260505071518 58 213 0.0 0.0 0.00 0.00 0.00 70 1007.8
20260505070015 60 213 0.0 0.0 0.00 0.00 0.00 69 1007.6
20260505064512 60 238 0.0 4.3 0.00 0.00 0.00 68 1007.4
20260505063014 61 249 0.0 5.2 0.00 0.00 0.00 67 1007.5
20260505061512 61 234 0.0 0.0 0.00 0.00 0.00 67 1007.3
20260505060024 61 240 0.0 0.0 0.00 0.00 0.00 66 1007.2
20260505054518 62 250 0.0 0.0 0.00 0.00 0.00 66 1007.2
20260505053010 63 250 0.0 0.0 0.00 0.00 0.00 64 1007.1
20260505051510 63 250 0.0 0.0 0.00 0.00 0.00 63 1007.2
20260505041508 66 204 0.0 0.0 0.00 0.00 0.00 57 1006.7
20260505040008 68 205 0.0 0.0 0.00 0.00 0.00 56 1006.6
20260505034507 67 315 2.6 8.7 0.00 0.00 0.00 56 1006.3
20260505033015 68 240 0.0 7.0 0.00 0.00 0.00 55 1006.1
20260505031506 68 269 1.7 6.1 0.00 0.00 0.00 55 1005.9
20260505030005 69 263 4.3 17.4 0.00 0.00 0.00 54 1005.7
20260505024505 69 247 6.1 13.0 0.00 0.00 0.00 54 1005.6
20260505023004 71 252 7.0 18.2 0.00 0.00 0.00 52 1005.6
20260505021503 72 279 9.6 20.9 0.00 0.00 0.00 50 1005.4
20260505020003 72 271 6.1 14.8 0.00 0.00 0.00 49 1005.1
20260505014507 73 300 8.7 15.6 0.00 0.00 0.00 47 1005.2
20260505013002 74 254 7.0 14.8 0.00 0.00 0.00 45 1005.2
20260505011503 75 248 9.6 16.5 0.00 0.00 0.00 42 1005.4
20260505010103 75 277 5.2 16.5 0.00 0.00 0.00 43 1005.5
20260505004602 76 259 8.7 15.6 0.00 0.00 0.00 41 1005.3
20260505003103 76 284 9.6 18.2 0.00 0.00 0.00 40 1005.1
20260505001559 77 252 5.2 16.5 0.00 0.00 0.00 41 1005.1
20260504234622 78 234 4.3 13.0 0.00 0.00 0.00 39 1005.0
20260504233057 78 265 9.6 17.4 0.00 0.00 0.00 37 1005.1
20260504231601 79 274 5.2 14.8 0.00 0.00 0.00 37 1005.1
20260504230053 79 254 7.8 12.2 0.00 0.00 0.00 36 1005.2
20260504224603 79 360 7.0 13.9 0.00 0.00 0.00 34 1005.4
20260504223050 80 274 6.1 11.3 0.00 0.00 0.00 36 1005.5
20260504221600 80 259 7.0 13.0 0.00 0.00 0.00 32 1005.5
20260504220052 80 289 7.0 12.2 0.00 0.00 0.00 34 1005.7
20260504214551 80 286 3.5 10.4 0.00 0.00 0.00 36 1005.7
20260504213052 80 286 5.2 10.4 0.00 0.00 0.00 33 1005.8
20260504211544 80 360 6.1 11.3 0.00 0.00 0.00 33 1006.0
20260504210053 80 257 1.7 11.3 0.00 0.00 0.00 37 1006.1
20260504204619 80 277 3.5 10.4 0.00 0.00 0.00 32 1006.2
20260504203040 80 267 4.3 9.6 0.00 0.00 0.00 30 1006.3
20260504201538 80 267 3.5 7.8 0.00 0.00 0.00 31 1006.4
20260504200039 80 276 3.5 7.8 0.00 0.00 0.00 33 1006.5